Location: Little Chesterford
(52.0500°N, 0.1833°E)
Time: 04:03:23
(UTC+00:00)

IRS-1C Rocket - Pass Details

Date: 26 September 2023
Orbit: 801 x 804 km, 98.8° (Epoch: 29 November)

Event Time Altitude Azimuth Distance (km) Brightness Sun altitude
Exits shadow 19:56:15 38° 132° (SE) 1,219 4.5 -19.8°
Maximum altitude 19:58:11 62° 69° (ENE) 904 4.1 -20.1°
Drops below altitude 10° 20:03:23 10° 350° (N) 2,391 7.0 -20.8°
Sets 20:05:44 0° 347° (NNW) 3,325 7.9 -21.2°
